CST,Max TemperatureF,Mean TemperatureF,Min TemperatureF,Max Dew PointF,MeanDew PointF,Min DewpointF,Max Humidity, Mean Humidity, Min Humidity, Max Sea Level PressureIn, Mean Sea Level PressureIn, Min Sea Level PressureIn, Max VisibilityMiles, Mean VisibilityMiles, Min VisibilityMiles, Max Wind SpeedMPH, Mean Wind SpeedMPH, Max Gust SpeedMPH,PrecipitationIn, CloudCover, Events, WindDirDegrees
2011-11-1,77,57,37,46,39,28,82,58,33,30.07,30.00,29.92,10,10,10,24,11,33,0.00,1,,184
2011-11-2,63,51,39,45,39,37,93,68,43,30.04,30.01,29.97,10,7,2,26,13,33,0.96,7,Rain,351
2011-11-3,49,41,33,39,34,29,92,73,53,30.28,30.08,29.89,10,8,2,30,16,40,0.56,6,Rain-Snow,1
2011-11-4,56,41,25,38,31,24,92,65,38,30.33,30.26,30.16,10,10,10,14,7,18,0.00,0,,83
2011-11-5,55,44,33,43,40,33,100,83,66,30.17,30.07,29.91,10,6,0,22,12,29,0.00,5,Fog,161
2011-11-6,67,59,50,52,48,42,86,72,58,30.10,29.97,29.87,10,10,8,23,9,31,0.01,6,,199
2011-11-7,59,53,47,48,43,35,93,74,54,30.20,30.10,29.98,10,7,2,20,10,26,1.50,8,Rain,51
2011-11-8,47,45,42,46,43,39,100,96,92,30.02,29.93,29.78,9,3,1,20,13,24,1.09,8,Rain,30
2011-11-9,50,42,33,36,30,23,100,71,42,30.23,29.97,29.74,10,7,1,28,14,38,0.38,5,Rain-Snow-Thunderstorm,317
2011-11-10,45,34,22,23,20,17,81,59,36,30.24,30.20,30.14,10,10,10,21,10,29,0.00,0,,279
2011-11-11,59,41,23,36,29,17,81,62,43,30.12,29.90,29.80,10,10,10,18,9,25,0.00,0,,201
2011-11-12,62,52,42,46,36,32,77,56,35,29.80,29.66,29.51,10,10,10,22,13,32,0.00,0,,198
2011-11-13,69,55,40,50,38,28,89,56,23,29.66,29.50,29.37,10,10,10,28,12,39,0.00,0,,234
2011-11-14,64,49,34,38,34,27,85,55,25,29.78,29.66,29.56,10,10,9,20,7,25,0.00,0,,219
2011-11-15,66,48,29,39,31,23,92,62,31,30.01,29.81,29.72,10,10,10,16,8,22,0.00,0,,265
2011-11-16,45,35,25,22,15,7,75,49,22,30.31,30.20,30.04,10,10,10,18,8,24,0.00,1,,335
2011-11-17,47,34,20,24,15,10,67,45,23,30.38,30.28,30.14,10,10,10,17,9,28,0.00,0,,231
2011-11-18,59,47,35,30,24,20,64,47,29,30.12,29.93,29.79,10,10,10,29,16,39,0.00,0,,197
2011-11-19,69,51,32,52,37,25,85,62,39,30.10,29.81,29.60,10,10,9,24,13,37,0.00,6,Snow,220
2011-11-20,37,34,30,32,28,26,85,80,75,30.33,30.26,30.15,10,10,9,18,10,21,T,8,Snow,21
2011-11-21,43,40,37,39,37,32,92,87,82,30.28,30.19,30.10,10,6,3,8,5,10,0.00,8,,63
2011-11-22,43,41,38,43,40,37,100,95,89,30.18,30.03,29.94,7,2,0,14,8,17,0.16,8,Fog-Rain,354
2011-11-23,44,39,33,41,38,33,100,93,86,30.29,30.23,30.16,7,3,1,10,6,15,0.00,6,,200
2011-11-24,63,49,35,45,41,36,100,76,51,30.23,30.15,30.02,10,6,2,20,12,26,0.00,2,,192
2011-11-25,58,51,44,47,43,39,83,72,61,30.00,29.89,29.81,10,10,9,21,13,31,0.00,4,,204
2011-11-26,56,47,37,52,45,31,100,81,61,30.08,29.88,29.80,10,6,1,23,11,33,0.77,8,Rain,299
2011-11-27,37,35,32,32,27,25,82,73,64,30.24,30.16,30.05,10,10,10,23,13,33,0.00,8,,337
2011-11-28,37,31,25,27,25,23,92,78,64,30.20,30.13,30.02,10,10,8,13,7,17,0.00,5,,9
2011-11-29,44,35,26,27,20,11,92,61,30,30.21,30.15,30.03,10,10,8,23,14,31,0.00,0,,345
2011-11-30,48,31,13,18,13,6,92,56,20,30.20,30.15,30.06,10,10,10,13,6,16,0.00,0,,201